Location: Burbank
(38.7788°N, 114.0429°W)
Time: 05:27:17
(UTC+00:00)

Vanguard 2 - All Passes

Search period start: 10 May 2026 00:00
Search period end: 20 May 2026 00:00
Orbit: 554 x 2895 km, 32.9° (Epoch: 9 May)

Date Brightness Start Highest point End Pass type
(mag) Time Alt. Az. Time Alt. Az. Time Alt. Az.
10 May - 07:17:53 10° SSE 07:26:09 15° SE 07:34:18 10° ESE visible
10 May - 09:20:48 10° SSW 09:36:12 39° SSE 09:49:16 10° E visible
10 May - 11:30:23 10° WSW 11:47:06 61° SSE 11:58:50 10° E visible
10 May - 13:42:47 10° W 13:57:36 66° S 14:06:44 10° ESE daylight
10 May - 15:55:48 10° W 16:06:24 40° SSW 16:13:05 10° SE daylight
11 May - 07:26:32 10° S 07:37:27 21° SE 07:48:12 10° E visible
11 May - 09:31:36 10° SW 09:47:42 45° SSE 10:01:16 10° E visible
11 May - 11:41:53 10° WSW 11:58:48 65° S 12:10:35 10° E visible
11 May - 13:54:33 10° W 14:09:16 63° SSW 14:18:21 10° ESE daylight
11 May - 16:07:45 10° W 16:17:46 34° SSW 16:24:17 10° SSE daylight
12 May - 07:36:08 10° S 07:48:44 26° SE 08:01:12 10° E visible
12 May - 09:42:37 10° SW 09:59:15 51° SSE 10:13:10 10° E visible
12 May - 11:53:29 10° WSW 12:10:30 68° S 12:22:17 10° E visible
12 May - 14:06:20 10° W 14:20:53 60° SSW 14:29:55 10° ESE daylight
12 May - 16:19:51 10° W 16:29:02 28° SW 16:35:17 10° SSE daylight
13 May - 07:46:15 10° SSW 08:00:02 32° SE 08:13:43 10° E visible
13 May - 09:53:50 10° SW 10:10:49 57° SSE 10:24:59 10° E visible
13 May - 12:05:10 10° WSW 12:22:12 69° S 12:33:59 10° E daylight
13 May - 14:18:08 10° W 14:32:26 55° SSW 14:41:24 10° SE daylight
13 May - 16:32:10 10° W 16:40:12 22° SW 16:46:00 10° S daylight
14 May - 05:56:00 10° SSE 06:02:00 13° SE 06:08:17 10° ESE visible
14 May - 07:56:45 10° SSW 08:11:22 38° SSE 08:25:57 10° E visible
14 May - 10:05:10 10° WSW 10:22:27 62° SSE 10:36:45 10° E visible
14 May - 12:16:53 10° W 12:33:54 69° S 12:45:39 10° ESE daylight
14 May - 14:29:58 10° W 14:43:54 49° SSW 14:52:46 10° SE daylight
14 May - 16:44:52 10° W 16:51:18 17° SW 16:56:16 10° S daylight
15 May - 06:04:01 10° S 06:13:07 18° SE 06:22:58 10° E visible
15 May - 08:07:31 10° SW 08:22:44 44° SSE 08:37:58 10° E visible
15 May - 10:16:39 10° WSW 10:34:05 66° SSE 10:48:30 10° E visible
15 May - 12:28:37 10° W 12:45:34 68° S 12:57:16 10° ESE daylight
15 May - 14:41:51 10° W 14:55:16 43° SSW 15:04:02 10° SE daylight
15 May - 16:58:31 10° WSW 17:02:19 12° SW 17:05:36 10° SSW daylight
16 May - 06:13:25 10° S 06:24:14 23° SE 06:36:16 10° E visible
16 May - 08:18:30 10° SW 08:34:09 50° SSE 08:49:54 10° E visible
16 May - 10:28:13 10° WSW 10:45:46 69° S 11:00:13 10° E visible
16 May - 12:40:23 10° W 12:57:13 65° SSW 13:08:51 10° ESE daylight
16 May - 14:53:50 10° W 15:06:33 37° SW 15:15:07 10° SSE daylight
17 May - 06:23:26 10° SSW 06:35:23 29° SE 06:48:57 10° E visible
17 May - 08:29:41 10° SW 08:45:37 56° SSE 09:01:44 10° E visible
17 May - 10:39:51 10° WSW 10:57:27 71° S 11:11:56 10° E visible
17 May - 12:52:09 10° W 13:08:47 61° SSW 13:20:20 10° ESE daylight
17 May - 15:05:57 10° W 15:17:44 30° SW 15:26:00 10° SSE daylight
18 May - 06:33:53 10° SSW 06:46:33 35° SE 07:01:17 10° E visible
18 May - 08:41:00 10° SW 08:57:09 61° SSE 09:13:30 10° E visible
18 May - 10:51:31 10° W 11:09:09 71° S 11:23:35 10° ESE visible
18 May - 13:03:56 10° W 13:20:17 55° SSW 13:31:44 10° SE daylight
18 May - 15:18:18 10° W 15:28:50 25° SW 15:36:35 10° S daylight
19 May - 04:43:17 10° SSE 04:49:14 14° SE 04:55:53 10° ESE visible
19 May - 06:44:37 10° SSW 06:57:46 41° SE 07:13:23 10° E visible
19 May - 08:52:26 10° WSW 09:08:45 66° SSE 09:25:16 10° E visible
19 May - 11:03:14 10° W 11:20:50 70° S 11:35:13 10° ESE visible
19 May - 13:15:47 10° W 13:31:42 50° SSW 13:43:01 10° SE daylight
19 May - 15:31:02 10° W 15:39:51 19° SW 15:46:44 10° S daylight
